[[{"header":{"parameterUnit":"m.s-1","parameterCategory":1,"la1":30.2991,"la2":30.254,"lo1":-89.0895,"lo2":-89.0444,"dy":0.0017,"dx":0.0017,"nx":28,"ny":28,"refTime":"2025-08-15T03:00:00:Z","depth":0,"parameterNumber":2,"parameterNumberName":"U-component_of_WINDS"},"data":[0,0,0,0,0,0,0,0,0,0,0,0,0,0,0,0,0,0,0,0,0,0,0,0,0,0,0,0,0,0,0,0,0,0,0,0,0,0,0,0,0,0,0,0,0,0,0,0,0,0,0,0,0,0,0,0,0,0,-0.209,-0.2088,0,-0.1941,-0.1939,-0.1938,-0.1886,-0.1886,-0.1887,-0.1887,-0.1732,-0.1727,-0.1723,0,0,0,0,0,0,0,0,0,0,0,0,0,-0.2326,-0.2322,-0.209,-0.2088,-0.2086,-0.1941,-0.1939,-0.1937,-0.1886,-0.1886,-0.1887,-0.1888,-0.1733,-0.1728,-0.1722,0,0,0,0,0,0,0,0,0,0,0,0,0,-0.2205,-0.2321,-0.209,-0.2043,-0.2037,-0.1942,-0.1939,-0.1937,-0.1885,-0.1886,-0.1887,-0.1888,-0.1735,-0.1728,-0.1721,-0.1661,0,0,-0.17,-0.1697,0,0,0,0,0,0,0,0,-0.2212,-0.2196,-0.2052,-0.2046,-0.204,-0.1933,-0.1965,-0.1844,-0.1885,-0.1943,-0.1887,-0.1888,-0.1798,-0.1786,-0.1756,-0.1654,-0.1647,-0.1699,-0.1695,-0.1692,-0.169,0,0,0,0,0,0,0,-0.222,-0.2202,-0.2031,-0.205,-0.2042,-0.2028,-0.2012,-0.1942,-0.1867,-0.1938,-0.1934,-0.1917,-0.1795,-0.1763,-0.1752,-0.1645,-0.17,-0.1693,-0.1689,-0.1686,-0.1484,-0.1483,0,0,0,0,0,0,-0.2237,-0.221,-0.2036,-0.2027,-0.213,-0.2023,-0.2005,-0.1966,-0.1868,-0.1854,-0.1917,-0.1915,-0.1774,-0.176,-0.1746,-0.1668,-0.1692,-0.1686,-0.1682,-0.1485,-0.1484,-0.1483,0,0,0,0,0,0,-0.2242,-0.2222,-0.2042,-0.2117,-0.2093,-0.2018,-0.1975,-0.1963,-0.1931,-0.1852,-0.1838,-0.1898,-0.1774,-0.1756,-0.1682,-0.1662,-0.1682,-0.1676,-0.1487,-0.1485,-0.1483,-0.1513,0,0,0,0,0,0,-0.2249,-0.2224,-0.2202,-0.2117,-0.2089,-0.1982,-0.1974,-0.1959,-0.1919,-0.1916,-0.1831,-0.1817,-0.1774,-0.1693,-0.1676,-0.1653,-0.1671,-0.1488,-0.1486,-0.1484,-0.1513,-0.1512,-0.1511,0,0,0,0,0,-0.2258,-0.2215,-0.2201,-0.218,-0.2059,-0.1981,-0.1965,-0.1916,-0.1918,-0.1894,-0.1843,-0.182,-0.1667,-0.1686,-0.1666,-0.1641,-0.1489,-0.1487,-0.1484,-0.1514,-0.1512,-0.1511,0,0,0,0,0,0,-0.2298,-0.2203,-0.2186,-0.2115,-0.2057,-0.1972,-0.194,-0.1917,-0.1856,-0.1855,-0.1797,-0.1778,-0.1709,-0.1667,-0.169,-0.1576,-0.1577,-0.157,-0.1606,-0.1604,-0.1603,-0.1615,-0.1665,0,0,0,0,0,-0.2299,-0.2245,-0.2164,-0.2109,-0.2081,-0.2016,-0.198,-0.1947,-0.1884,-0.1859,-0.1802,-0.1741,-0.1679,-0.1639,-0.1578,-0.1507,-0.1487,-0.1479,-0.1478,-0.1478,-0.1473,-0.1431,-0.1427,-0.1474,-0.1474,-0.1474,0,0,-0.23,-0.2241,-0.221,-0.2116,-0.2066,-0.201,-0.1995,-0.1936,-0.1893,-0.1849,-0.1777,-0.1733,-0.1661,-0.1588,-0.1553,-0.1551,-0.1455,-0.1475,-0.1475,-0.147,-0.1428,-0.1424,-0.142,-0.1472,-0.1473,-0.1473,0,0,-0.2273,-0.2223,-0.2172,-0.2123,-0.2049,-0.2006,-0.1994,-0.1913,-0.1882,-0.1809,-0.1774,-0.1722,-0.1617,-0.1566,-0.1527,-0.148,-0.1456,-0.1461,-0.1456,-0.1416,-0.1412,-0.1409,-0.1391,-0.1386,-0.1456,-0.1456,-0.1456,0,-0.2283,-0.2197,-0.2148,-0.209,-0.2049,-0.2008,-0.1954,-0.1909,-0.1819,-0.1791,-0.179,-0.1656,-0.1605,-0.1519,-0.1508,-0.1477,-0.1461,-0.1471,-0.1417,-0.1413,-0.1409,-0.1391,-0.1385,-0.1457,-0.1457,-0.1457,-0.1457,0,-0.2213,-0.2154,-0.2121,-0.2036,-0.1991,-0.1936,-0.1877,-0.1837,-0.1808,-0.1765,-0.169,-0.1626,-0.1551,-0.1528,-0.15,-0.1438,-0.1439,-0.1429,-0.1428,-0.1406,-0.1389,-0.1382,-0.1459,-0.1458,-0.1458,-0.1458,0,0,-0.2207,-0.2095,-0.2084,-0.2044,-0.1959,-0.1912,-0.1855,-0.1782,-0.1749,-0.1687,-0.1637,-0.1549,-0.1538,-0.1493,-0.1458,-0.1423,-0.1389,-0.1416,-0.1414,-0.1413,-0.1317,-0.1326,-0.1319,-0.1373,-0.1372,-0.1371,-0.1323,0,-0.2168,-0.2065,-0.2018,-0.1935,-0.188,-0.1839,-0.1789,-0.1731,-0.1689,-0.1635,-0.1587,-0.1526,-0.1517,-0.1489,-0.1453,-0.1401,-0.1369,-0.1404,-0.1325,-0.1322,-0.1344,-0.131,-0.1319,-0.1277,-0.1316,-0.1315,-0.1314,0,-0.2109,-0.2049,-0.1961,-0.1882,-0.1857,-0.1813,-0.1742,-0.1691,-0.1624,-0.1596,-0.1546,-0.1512,-0.1449,-0.1453,-0.1364,-0.1389,-0.1354,-0.1323,-0.132,-0.1311,-0.1317,-0.1299,-0.1262,-0.1256,-0.1303,-0.1304,-0.1304,0,-0.2113,-0.201,-0.1944,-0.1911,-0.1818,-0.1788,-0.1747,-0.1681,-0.164,-0.1577,-0.155,-0.1481,-0.1443,-0.139,-0.1338,-0.1345,-0.1254,-0.1253,-0.1227,-0.1229,-0.121,-0.1212,-0.1167,-0.1188,-0.1188,-0.1188,-0.1188,0,-0.2075,-0.2023,-0.1944,-0.1904,-0.1843,-0.1789,-0.1731,-0.1687,-0.1628,-0.1577,-0.1537,-0.149,-0.1425,-0.1369,-0.1328,-0.126,-0.1244,-0.1218,-0.1208,-0.1222,-0.1225,-0.1197,-0.1199,-0.1186,-0.1187,-0.1187,-0.1187,0,-0.2069,-0.2015,-0.194,-0.1858,-0.1836,-0.1795,-0.1724,-0.1682,-0.1638,-0.1574,-0.1556,-0.1486,-0.1418,-0.1362,-0.1272,-0.1244,-0.1174,-0.1162,-0.1197,-0.1192,-0.1169,-0.1172,-0.1105,-0.1093,-0.1122,-0.1122,-0.1122,0,-0.2048,-0.2007,-0.1921,-0.1884,-0.1845,-0.1786,-0.1744,-0.1689,-0.1647,-0.1567,-0.1535,-0.1464,-0.1405,-0.1298,-0.1239,-0.117,-0.1156,-0.1137,-0.1145,-0.116,-0.1155,-0.1158,-0.1153,-0.1136,-0.1136,-0.1136,-0.1136,0,-0.2016,-0.1991,-0.1933,-0.1865,-0.1817,-0.176,-0.1703,-0.1675,-0.1609,-0.1563,-0.1494,-0.1448,-0.1357,-0.1287,-0.1212,-0.1169,-0.1141,-0.1134,-0.1124,-0.1138,-0.116,-0.1147,-0.1195,-0.1136,-0.1136,-0.1136,-0.1136,-0.1136,-0.2002,-0.1963,-0.1896,-0.1832,-0.1784,-0.1731,-0.1687,-0.1638,-0.1579,-0.1502,-0.1472,-0.1401,-0.1334,-0.123,-0.1186,-0.1129,-0.1126,-0.1112,-0.1108,-0.1105,-0.1107,-0.117,-0.1115,-0.1115,-0.1115,-0.1115,-0.1115,0,-0.1968,-0.1923,-0.1865,-0.1786,-0.1735,-0.1715,-0.1649,-0.1608,-0.1547,-0.1487,-0.1429,-0.1349,-0.1281,-0.1216,-0.1145,-0.1111,-0.1097,-0.1094,-0.1096,-0.1086,-0.1115,-0.113,-0.1107,-0.1107,-0.1107,-0.1107,-0.1107,-0.1107,-0.1944,-0.1877,-0.1844,-0.1753,-0.1707,-0.1638,-0.1603,-0.1553,-0.1505,-0.1418,-0.1361,-0.132,-0.1257,-0.1181,-0.1117,-0.11,-0.1075,-0.1076,-0.1055,-0.1083,-0.1084,-0.1086,-0.11,-0.1071,-0.1071,-0.1031,-0.1031,-0.1031]},{"header":{"parameterUnit":"m.s-1","parameterCategory":1,"la1":30.2991,"la2":30.254,"lo1":-89.0895,"lo2":-89.0444,"dy":0.0017,"dx":0.0017,"nx":28,"ny":28,"refTime":"2025-08-15T03:00:00:Z","depth":0,"parameterNumber":3,"parameterNumberName":"V-component_of_WINDS"},"data":[0,0,0,0,0,0,0,0,0,0,0,0,0,0,0,0,0,0,0,0,0,0,0,0,0,0,0,0,0,0,0,0,0,0,0,0,0,0,0,0,0,0,0,0,0,0,0,0,0,0,0,0,0,0,0,0,0,0,1.0536,1.0535,0,1.0501,1.0501,1.0501,1.0474,1.0474,1.0474,1.0474,1.0438,1.0437,1.0436,0,0,0,0,0,0,0,0,0,0,0,0,0,1.0575,1.0574,1.0536,1.0535,1.0535,1.0502,1.0501,1.0501,1.0474,1.0474,1.0474,1.0474,1.0438,1.0437,1.0436,0,0,0,0,0,0,0,0,0,0,0,0,0,1.0551,1.0574,1.0536,1.0518,1.0516,1.0502,1.0501,1.05,1.0475,1.0474,1.0474,1.0473,1.0438,1.0437,1.0436,1.0437,0,0,1.0433,1.0432,0,0,0,0,0,0,0,0,1.0552,1.055,1.0521,1.0519,1.0517,1.0492,1.0502,1.0479,1.0475,1.049,1.0474,1.0473,1.0456,1.0453,1.0448,1.0435,1.0433,1.0433,1.0432,1.0432,1.0431,0,0,0,0,0,0,0,1.0554,1.0551,1.0522,1.052,1.0518,1.051,1.0507,1.0497,1.0476,1.0489,1.0487,1.0483,1.0455,1.0449,1.0447,1.0433,1.0433,1.0432,1.0431,1.0431,1.0415,1.0415,0,0,0,0,0,0,1.0559,1.0553,1.0523,1.0521,1.0534,1.051,1.0506,1.05,1.0476,1.0471,1.0484,1.0482,1.0451,1.0448,1.0445,1.0442,1.0432,1.0431,1.043,1.0415,1.0415,1.0415,0,0,0,0,0,0,1.056,1.0557,1.0525,1.0536,1.0532,1.051,1.0504,1.05,1.0494,1.0472,1.0467,1.0482,1.0451,1.0447,1.0438,1.0441,1.043,1.0429,1.0414,1.0415,1.0415,1.0437,0,0,0,0,0,0,1.0561,1.0557,1.0558,1.0536,1.0531,1.0519,1.0504,1.0499,1.0492,1.049,1.0469,1.0465,1.045,1.044,1.0437,1.0439,1.0428,1.0414,1.0415,1.0415,1.0436,1.0438,1.044,0,0,0,0,0,1.0563,1.0566,1.0558,1.0555,1.0532,1.0519,1.0516,1.0499,1.0493,1.0492,1.0477,1.0466,1.0441,1.0439,1.0436,1.0437,1.0414,1.0415,1.0415,1.0435,1.0438,1.044,0,0,0,0,0,0,1.0589,1.0563,1.0554,1.0551,1.0538,1.0515,1.0515,1.0503,1.0491,1.049,1.0469,1.0464,1.0457,1.0446,1.0445,1.0435,1.0426,1.0425,1.0442,1.0444,1.0446,1.0449,1.0427,0,0,0,0,0,1.0595,1.0587,1.0565,1.0564,1.0558,1.0537,1.0531,1.0519,1.0504,1.0498,1.0483,1.0469,1.0457,1.045,1.0439,1.0434,1.0428,1.0433,1.0435,1.0437,1.0437,1.0431,1.0432,1.0417,1.0417,1.0417,0,0,1.0606,1.0591,1.0588,1.0569,1.0557,1.0548,1.0533,1.0525,1.0518,1.0497,1.0488,1.0476,1.0458,1.045,1.0446,1.0441,1.0439,1.0437,1.0439,1.0438,1.0431,1.0433,1.0434,1.0417,1.0417,1.0417,0,0,1.0622,1.0611,1.0607,1.0595,1.0577,1.0563,1.0562,1.0541,1.0532,1.0522,1.0505,1.0496,1.0477,1.0464,1.0455,1.0463,1.045,1.0459,1.047,1.0464,1.0465,1.0466,1.0467,1.0467,1.046,1.046,1.046,0,1.0638,1.0625,1.0607,1.06,1.0591,1.057,1.0566,1.0555,1.0534,1.0528,1.0522,1.0496,1.0483,1.0471,1.0473,1.0467,1.0463,1.0462,1.0466,1.0467,1.0468,1.0468,1.0469,1.0461,1.0461,1.0461,1.046,0,1.0645,1.0636,1.0635,1.0615,1.0606,1.06,1.0579,1.0572,1.056,1.0546,1.0534,1.0517,1.0501,1.0497,1.0486,1.0482,1.0479,1.0471,1.0461,1.0471,1.047,1.0471,1.0462,1.0462,1.0462,1.0461,0,0,1.0678,1.0645,1.0645,1.0634,1.0611,1.0604,1.0596,1.0579,1.0572,1.0558,1.0549,1.0533,1.0523,1.0513,1.05,1.0495,1.0499,1.0486,1.0485,1.0488,1.0492,1.0498,1.0499,1.049,1.049,1.049,1.0493,0,1.0688,1.0674,1.0655,1.0646,1.0636,1.0616,1.0608,1.0593,1.0579,1.0567,1.0552,1.0539,1.0529,1.0522,1.0517,1.05,1.0499,1.0499,1.0481,1.048,1.0485,1.0499,1.0506,1.0509,1.0493,1.0493,1.0493,0,1.07,1.0685,1.0675,1.065,1.0645,1.0639,1.0621,1.0611,1.0592,1.0582,1.0569,1.0554,1.0543,1.0534,1.0517,1.0517,1.0509,1.0499,1.0498,1.0496,1.0487,1.0495,1.051,1.051,1.0493,1.0493,1.0493,0,1.0722,1.07,1.069,1.0682,1.0654,1.0649,1.0637,1.0618,1.0608,1.0592,1.0585,1.0568,1.0558,1.0544,1.0524,1.0521,1.0508,1.0499,1.0498,1.0499,1.0497,1.0497,1.0509,1.0493,1.0493,1.0493,1.0493,0,1.0735,1.0729,1.07,1.0694,1.0685,1.0664,1.0656,1.0642,1.0624,1.0614,1.0595,1.0585,1.056,1.0547,1.0531,1.0518,1.0514,1.0504,1.05,1.0506,1.0507,1.0499,1.0498,1.0493,1.0493,1.0493,1.0493,0,1.0759,1.0739,1.0727,1.07,1.0693,1.0688,1.0665,1.0657,1.0642,1.0629,1.0624,1.0599,1.0583,1.0561,1.0538,1.0527,1.0515,1.051,1.0522,1.0519,1.0519,1.0519,1.0527,1.0526,1.0511,1.0511,1.0511,0,1.0768,1.0763,1.0735,1.0727,1.0715,1.0703,1.0692,1.067,1.066,1.0636,1.0631,1.0612,1.0597,1.0571,1.055,1.0531,1.0524,1.0528,1.0521,1.0526,1.0522,1.0523,1.0521,1.0529,1.053,1.053,1.053,0,1.0786,1.0776,1.0762,1.0744,1.0732,1.0716,1.07,1.0694,1.0668,1.0657,1.064,1.0628,1.0603,1.0584,1.0563,1.0549,1.0535,1.0532,1.0531,1.0536,1.0543,1.0538,1.0525,1.0532,1.0532,1.0532,1.0532,1.0532,1.0802,1.0795,1.0774,1.0758,1.0743,1.0728,1.0719,1.0701,1.0687,1.0665,1.0653,1.0635,1.0613,1.0583,1.0569,1.0554,1.0549,1.0548,1.0547,1.0547,1.0548,1.0546,1.055,1.055,1.055,1.055,1.055,0,1.0817,1.0802,1.0788,1.0765,1.0752,1.074,1.0721,1.071,1.0695,1.0677,1.0661,1.064,1.0621,1.0598,1.0578,1.057,1.0563,1.0565,1.0565,1.0562,1.0554,1.0557,1.0571,1.0571,1.0571,1.0571,1.0571,1.0571,1.0823,1.0811,1.0798,1.0777,1.0762,1.0744,1.0734,1.0719,1.0704,1.0681,1.0665,1.0651,1.0629,1.0607,1.0589,1.0582,1.0575,1.0579,1.0571,1.0564,1.0562,1.0561,1.0563,1.0578,1.0578,1.0579,1.0579,1.0579]}]]